ARIANE 42P DEB, 44510

Orbit data source: Space-Track

ARIANE 42P DEB, 44510 is space debris in LEO originally from a launch on Mon, 10 Aug 1992 UTC launched from the French Guiana (FRGUI). Debris objects in space refer to the collection of defunct objects orbiting the Earth. Examples of debris include non-operational satellites, rocket bodies, and fragments generated from explosions, collisions, or faulty payload assembly.

Loading next visibility...
Identifier
44510, 1992-052H
Orbit
LEO
Country
Flag of FRFR
Related business
Manufacturer
ArianeGroup
Mission
Spacecraft
Bus & Motor
Unknown
Mass
Unknown
Launch date (UTC)
1992-08-10 (33 years ago)
Launch vehicle
Unknown
Launch site
French Guiana (FRGUI)
Object type
Payload
Rocket body
Debris
Shape & HBR
Unknown
Radar Cross Section
Small (<0.1 m²)

Expand to show TLE details & history
Last TLE update: 12 hours ago

TLE from 12 hours ago
0 ARIANE 42P DEB
1 44510U 92052H   25261.03687211  .00001833  00000-0  80477-2 0  9999
2 44510  66.0572 144.1312 0077518  82.4947 278.4867 12.81498355284710
Epoch: 2025-09-18T00:53Z
TLE epoch observation values (Epoch: 2025-09-18T00:53:05.75Z)
Latitude
-0.00001°
Longitude
133.65301°
Altitude
1,328.992 km
Speed
7.197 km/s
True Right ascension
09h 36m 31s
True Declination
0° 00' 00"
Sunlit
Object was in daylight at epoch
Visualization orbit readout
Latitude
Unknown
Longitude
Unknown
Altitude
Unknown
Speed
Unknown
Apparent Right ascension
Unknown
Apparent Declination
Unknown
Sunlit
N/A
Visualization observer readout
Local Sidereal Time
05:27:50
Azimuth
Unknown
Elevation
Unknown
Doppler factor
Unknown
Orbital elements
Apogee altitude
1,393.795 km
Perigee altitude
1,274.229 km
Semi-major axis
7,712.149 km
Eccentricity
0.00775
Inclination
66.0572°
RAAN
144.1312°
Arg. of periapsis
82.4947°
True anomaly
277.60691°
Mean anomaly
278.4867°
Eccentric anomaly
278.04693°
Mean motion
3.20465 °/min
Orbital period
112.34 mins
BSTAR
0.0080477
Loading maneuver chart data...
Computing Atmospheric mass density...
Loading historical data...
Loading historical data...
Loading historical data...
Loading historical data...
Loading historical data...
Loading historical data...
Loading historical data...

Documentation

Showing up to 5 results
|